Main page
METAR-TAF:

METAR-TAF

Airports :

Lavan Airport

Lavan Island, Iran

latitude: 26-48-37N, longitude: 53-21-22E, elevation: 23 m

Current weather observation

The report was made 1 hour and 9 minutes ago, at 07:00 UTC
Wind 19 kt from the West/Northwest
Temperature 32°C
Humidity 67%
Pressure 1000 hPa
Visibility: 5000 m
sand

METAR: OIBV 250700Z 29019KT 5000 SA NSC 32/25 Q1000

Time: 12:39 (08:09 UTC)


TAF: missing

Weather observations and forecasts of more than 4000 airports (METAR and TAF reports).

The available stations are represented by yellow and red dots on the map.

Hover mouse over dot to see the name of the station.

Then click to see weather observations and forecasts.

To change the map : click on the green buttons with a black cross to zoom in, on the green button with a dash to zoom out, or on the green arrows for adjacent maps.


METAR-TAF: